Stations météo

Publicité
Cherbourg, France (7024): Température de l'air & dewpoint: 25.04.2017 04:00:00 - 01.05.2017 04:00:00 (CEST)Cherbourg, France (7024): Température de l'air 5cm: 25.04.2017 04:00:00 - 01.05.2017 04:00:00 (CEST)Cherbourg, France (7024): Température de l'air -20cm & Température de l'air -100cm: 25.04.2017 04:00:00 - 01.05.2017 04:00:00 (CEST)Cherbourg, France (7024): Vitesse du vent & gusts: 25.04.2017 04:00:00 - 01.05.2017 04:00:00 (CEST)Cherbourg, France (7024): Direction du vent: 25.04.2017 04:00:00 - 01.05.2017 04:00:00 (CEST)Cherbourg, France (7024): reduced air pressure: 25.04.2017 04:00:00 - 01.05.2017 04:00:00 (CEST)Cherbourg, France (7024): visibility: 25.04.2017 04:00:00 - 01.05.2017 04:00:00 (CEST)Cherbourg, France (7024): Ensoleillement: 25.04.2017 04:00:00 - 01.05.2017 04:00:00 (CEST)Cherbourg, France (7024): Quantités de précipitations: 25.04.2017 04:00:00 - 01.05.2017 04:00:00 (CEST)
Date & Time tt [°C] td [°C] tt 5cm [°C] tt -20cm [°C] tt -100cm [°C] ff [km/h] ff [knt] fx [km/h] fx [knt] dd ppp [hPa] vv [km] sd [min] rr [mm]
01.05.2017 04:00:00 6,7 5,3 6,0 10,4 10,5 33 18 64 34 WSW 999,5 20 0 0,0
01.05.2017 03:00:00 6,9 5,7 4,6 10,5 10,6 43 23 66 35 W 998,5 11 0 1,8
01.05.2017 02:00:00 5,9 5,5 4,3 10,5 10,5 13 7 22 12 SSE 998,1 37 0 0,0
01.05.2017 01:00:00 5,9 5,2 4,6 10,6 10,6 12 6 23 12 SSE 998,1 33 0 0,0
01.05.2017 00:00:00 6,8 5,7 5,6 10,6 10,5 16 9 28 15 SSE 998,0 14 0 0,0
30.04.2017 23:00:00 7,3 6,6 6,2 10,7 10,6 14 8 29 16 SE 997,4 44 0 0,2
30.04.2017 22:00:00 7,7 7,1 7,1 10,7 10,5 16 9 26 14 SSE 997,6 53 0 0,0
30.04.2017 21:00:00 7,9 7,1 7,5 10,7 10,6 15 8 28 15 SSE 997,4 20 0 0,2
30.04.2017 20:00:00 8,7 8,1 8,6 10,7 10,6 13 7 24 13 SSE 996,6 17 0 0,4
30.04.2017 19:00:00 8,7 7,9 8,5 10,7 10,6 16 9 59 32 SSW 996,4 15 0 6,1
30.04.2017 18:00:00 10,9 10,1 10,6 10,7 10,5 16 9 27 15 ESE 996,5 5 0 0,8
30.04.2017 17:00:00 10,8 9,6 10,8 10,7 10,6 18 10 29 15 ESE 996,6 12 0 0,0
30.04.2017 16:00:00 10,5 9,1 10,5 10,7 10,5 18 10 34 18 ESE 996,5 18 0 0,0
30.04.2017 15:00:00 9,8 8,9 9,2 10,7 10,6 19 10 38 21 ESE 997,2 17 0 0,0
30.04.2017 14:00:00 9,6 8,4 8,8 10,7 10,5 24 13 41 22 ESE 997,5 14 6 0,2
30.04.2017 13:00:00 8,4 7,5 7,6 10,7 10,5 22 12 34 18 ESE 998,2 12 0 3,2
30.04.2017 12:00:00 8,5 6,1 7,5 10,7 10,5 16 9 32 17 SE 998,8 6 0 1,6
30.04.2017 11:00:00 11,1 3,9 11,6 10,7 10,5 17 9 31 17 SE 998,9 59 0 0,0
30.04.2017 10:00:00 11,2 4,6 10,9 10,8 10,5 18 10 35 19 ESE 999,0 51 0 0,0
30.04.2017 09:00:00 10,5 4,0 9,7 10,8 10,5 22 12 37 20 SE 1000,0 54 0 0,0
30.04.2017 08:00:00 9,9 4,3 8,9 10,9 10,5 25 13 39 21 ESE 1000,5 48 0 0,0
30.04.2017 07:00:00 9,5 4,7 8,6 10,9 10,5 22 12 40 22 ESE 1001,4 51 0 0,0
30.04.2017 06:00:00 9,2 5,0 8,5 11,0 10,5 23 12 37 20 ESE 1002,2 45 0 0,0
30.04.2017 05:00:00 9,5 4,7 8,7 11,0 10,5 23 13 38 21 ESE 1003,3 50 0 0,0
30.04.2017 04:00:00 10,0 5,0 9,4 11,1 10,5 23 12 38 20 ESE 1004,1 49 0 0,0
30.04.2017 03:00:00 10,6 4,9 9,8 11,1 10,5 23 12 45 25 ESE 1004,9 49 0 0,0
30.04.2017 02:00:00 11,3 5,0 10,6 11,2 10,5 28 15 49 26 ESE 1005,6 52 0 0,0
30.04.2017 01:00:00 11,8 5,4 11,1 11,2 10,5 24 13 41 22 ESE 1006,4 52 0 0,0
30.04.2017 00:00:00 12,3 5,0 11,1 11,3 10,5 24 13 39 21 ESE 1006,9 60 0 0,0
29.04.2017 23:00:00 12,0 5,2 10,3 11,3 10,5 16 9 28 15 E 1007,6 60 0 0,0
29.04.2017 22:00:00 11,6 5,7 10,4 11,3 10,5 14 8 22 12 E 1008,2 59 0 0,0
29.04.2017 21:00:00 11,8 6,3 10,6 11,3 10,5 10 5 19 10 E 1008,6 58 5 0,0
29.04.2017 20:00:00 12,4 6,9 12,4 11,2 10,5 16 9 29 16 E 1008,8 38 24 0,0
29.04.2017 19:00:00 13,0 7,2 14,6 11,2 10,5 20 11 37 20 E 1009,7 37 45 0,0
29.04.2017 18:00:00 13,0 7,2 14,3 11,0 10,5 24 13 35 19 E 1010,5 18 15 0,0
29.04.2017 17:00:00 13,1 6,7 15,2 10,9 10,5 26 14 37 20 E 1011,4 32 25 0,0
29.04.2017 16:00:00 13,7 7,5 16,1 10,8 10,5 22 12 34 19 ENE 1012,2 19 34 0,0
29.04.2017 15:00:00 14,5 7,8 15,2 10,6 10,5 17 9 27 15 E 1012,8 19 28 0,0
29.04.2017 14:00:00 13,6 5,5 18,5 10,4 10,5 18 10 30 16 E 1013,6 27 55 0,0
29.04.2017 13:00:00 13,4 5,0 18,4 10,4 10,5 18 10 33 18 ESE 1014,4 56 60 0,0
29.04.2017 12:00:00 13,0 5,6 15,4 10,3 10,5 19 10 32 17 ESE 1015,2 51 58 0,0
29.04.2017 11:00:00 12,1 5,0 15,2 10,3 10,5 17 9 31 17 SSE 1015,6 45 60 0,0
29.04.2017 10:00:00 10,5 5,0 11,9 10,3 10,5 13 7 22 12 SE 1016,1 10 60 0,0
29.04.2017 09:00:00 8,3 5,2 7,4 10,4 10,5 12 7 18 10 SSE 1016,6 51 60 0,0
29.04.2017 08:00:00 6,0 5,0 1,7 10,4 10,5 10 5 14 8 S 1016,7 34 42 0,0
29.04.2017 07:00:00 4,0 3,0 1,3 10,5 10,5 11 6 14 8 S 1016,9 27 0 0,2
29.04.2017 06:00:00 4,2 3,2 1,6 10,6 10,5 12 7 14 8 SSE 1017,1 31 0 0,0
29.04.2017 05:00:00 4,0 3,4 1,0 10,7 10,5 11 6 14 8 S 1017,4 10 0 0,0
29.04.2017 04:00:00 4,5 3,9 1,6 10,8 10,5 8 5 14 8 SSE 1017,7 11 0 0,0
29.04.2017 03:00:00 4,2 3,6 -1,0 10,9 10,5 7 4 9 5 S 1018,0 11 0 0,0
29.04.2017 02:00:00 5,3 4,6 -0,8 11,0 10,5 8 4 9 5 SSW 1018,5 10 0 0,0
29.04.2017 01:00:00 4,7 4,0 -1,0 11,1 10,5 9 5 13 7 SW 1018,9 29 0 0,0
29.04.2017 00:00:00 5,5 4,5 -1,0 11,1 10,5 12 6 13 7 WSW 1019,0 30 0 0,0
28.04.2017 23:00:00 4,3 3,0 -1,4 11,2 10,5 8 5 12 7 WSW 1019,1 20 0 0,0
28.04.2017 22:00:00 6,1 4,3 0,7 11,3 10,5 5 3 15 8 W 1018,7 45 0 0,0
28.04.2017 21:00:00 8,8 5,2 8,2 11,2 10,5 11 6 26 14 WNW 1018,4 60 42 0,0
28.04.2017 20:00:00 9,8 6,1 9,9 11,2 10,5 14 7 23 12 W 1018,2 60 4 0,0
28.04.2017 19:00:00 10,3 5,5 12,0 11,1 10,5 10 6 18 10 WNW 1018,2 55 7 0,0
28.04.2017 18:00:00 10,7 6,4 13,0 11,0 10,5 11 6 23 12 WNW 1018,3 58 27 0,0
28.04.2017 17:00:00 11,0 6,3 16,3 10,8 10,5 14 7 29 16 NW 1018,4 60 47 0,0
28.04.2017 16:00:00 11,4 6,1 18,6 10,6 10,5 17 9 27 15 WNW 1018,5 60 60 0,0
28.04.2017 15:00:00 11,7 3,9 20,2 10,5 10,5 12 6 25 13 WNW 1018,4 60 60 0,0
28.04.2017 14:00:00 10,8 5,1 17,4 10,4 10,5 17 9 25 14 WNW 1018,5 60 60 0,0
28.04.2017 13:00:00 11,0 5,1 15,1 10,3 10,5 13 7 22 12 WNW 1018,6 51 53 0,0
28.04.2017 12:00:00 9,9 6,1 11,0 10,3 10,5 13 7 23 12 WNW 1018,9 52 18 0,0
28.04.2017 11:00:00 9,2 5,6 10,8 10,3 10,5 12 7 23 13 NNW 1018,7 54 7 0,0
28.04.2017 10:00:00 9,9 6,1 10,3 10,3 10,5 13 7 25 14 NNW 1018,4 20 11 0,0
28.04.2017 09:00:00 9,0 5,4 8,5 10,3 10,5 14 8 22 12 N 1018,2 57 0 0,0
28.04.2017 08:00:00 8,4 5,9 7,2 10,3 10,5 8 4 18 10 NNW 1018,0 48 0 0,0
28.04.2017 07:00:00 8,1 5,6 7,0 10,3 10,5 11 6 22 12 N 1017,8 52 0 0,0
28.04.2017 06:00:00 8,1 6,2 7,2 10,4 10,5 11 6 26 14 NNW 1017,8 9 0 0,2
28.04.2017 05:00:00 8,4 5,5 7,8 10,4 10,5 10 6 23 12 NW 1018,0 50 0 0,0
28.04.2017 04:00:00 8,5 5,4 7,7 10,4 10,5 13 7 27 15 NW 1018,2 60 0 0,0
28.04.2017 03:00:00 8,6 5,5 8,1 10,5 10,5 17 9 34 18 WNW 1018,5 59 0 0,0
28.04.2017 02:00:00 8,7 5,4 8,0 10,5 10,5 16 9 35 19 NW 1018,9 57 0 0,0
28.04.2017 01:00:00 8,8 5,2 8,0 10,5 10,5 18 10 40 22 WNW 1018,9 60 0 0,0
28.04.2017 00:00:00 8,9 4,5 8,0 10,6 10,5 22 12 36 19 WNW 1019,2 60 0 0,0
27.04.2017 23:00:00 8,7 3,7 7,0 10,6 10,5 16 9 28 15 WNW 1019,6 60 0 0,0
27.04.2017 22:00:00 7,8 2,5 7,2 10,6 10,5 15 8 30 16 W 1019,7 60 0 0,0
27.04.2017 21:00:00 7,9 1,9 7,6 10,6 10,5 21 11 35 19 W 1019,7 60 6 0,0
27.04.2017 20:00:00 8,4 1,3 8,9 10,6 10,5 24 13 34 19 W 1019,9 58 52 0,0
27.04.2017 19:00:00 8,9 1,3 11,1 10,6 10,5 24 13 36 20 W 1020,0 60 58 0,0
27.04.2017 18:00:00 9,1 0,5 12,9 10,4 10,5 25 13 39 21 WNW 1020,2 19 60 0,0
27.04.2017 17:00:00 9,4 2,5 10,6 10,3 10,5 20 11 33 18 WNW 1020,5 60 19 0,0
27.04.2017 16:00:00 9,0 2,1 13,1 10,1 10,5 18 10 29 16 W 1020,8 29 47 0,0
27.04.2017 15:00:00 9,7 1,8 17,6 10,0 10,5 13 7 29 16 WNW 1021,2 20 60 0,0
27.04.2017 14:00:00 9,4 2,9 17,9 9,9 10,5 13 7 29 16 NW 1021,4 20 60 0,0
27.04.2017 13:00:00 8,6 1,9 11,4 9,9 10,5 14 7 27 14 WNW 1021,6 29 42 0,0
27.04.2017 12:00:00 7,8 1,4 8,4 9,8 10,5 10 5 24 13 NNW 1022,0 20 28 0,0
27.04.2017 11:00:00 8,2 1,3 10,1 9,8 10,5 12 7 26 14 N 1021,9 51 39 0,0
27.04.2017 10:00:00 7,2 1,3 7,1 9,9 10,5 10 5 21 12 N 1021,9 41 19 0,0
27.04.2017 09:00:00 7,4 1,7 5,3 9,9 10,5 11 6 19 10 N 1021,5 43 38 0,0
27.04.2017 08:00:00 4,8 0,6 -2,5 10,0 10,5 4 2 9 5 N 1021,4 55 21 0,0
27.04.2017 07:00:00 3,5 0,0 -3,0 10,1 10,5 6 4 11 6 N 1021,2 60 0 0,0
27.04.2017 06:00:00 3,7 0,2 -2,3 10,2 10,5 7 4 11 6 N 1021,0 60 0 0,0
27.04.2017 05:00:00 3,2 0,8 -3,8 10,3 10,5 6 4 11 6 N 1021,0 56 0 0,0
27.04.2017 04:00:00 3,9 0,6 -2,2 10,3 10,5 6 3 10 5 NNE 1020,9 58 0 0,0
27.04.2017 03:00:00 4,3 -0,1 0,6 10,4 10,5 6 4 18 10 NE 1020,8 60 0 0,0
27.04.2017 02:00:00 4,5 1,0 1,3 10,5 10,5 7 4 11 6 NNE 1020,8 57 0 0,0
27.04.2017 01:00:00 2,8 0,4 -2,5 10,6 10,5 2 1 4 2 S 1021,0 60 0 0,0
27.04.2017 00:00:00 2,0 -1,1 -2,9 10,6 10,5 0 0 19 11 N 1020,8 23 0 0,0
26.04.2017 23:00:00 4,3 0,1 3,3 10,6 10,5 13 7 37 20 ENE 1020,7 60 0 0,0
26.04.2017 22:00:00 5,9 1,0 3,8 10,6 10,5 25 14 43 23 NNE 1020,2 60 0 0,0
26.04.2017 21:00:00 7,2 1,1 6,3 10,6 10,6 16 9 28 15 N 1019,2 60 39 0,0
26.04.2017 20:00:00 8,4 2,0 10,5 10,6 10,6 13 7 26 14 NW 1018,9 52 60 0,0
26.04.2017 19:00:00 8,4 0,8 13,8 10,5 10,5 14 8 28 15 NNW 1018,8 50 60 0,0
26.04.2017 18:00:00 8,8 1,2 15,9 10,4 10,5 15 8 29 16 NNW 1018,8 43 56 0,0
26.04.2017 17:00:00 8,6 1,3 14,1 10,3 10,6 14 8 33 18 N 1018,8 20 52 0,0
26.04.2017 16:00:00 8,7 0,2 14,1 10,2 10,5 20 11 36 20 N 1018,8 20 55 0,0
26.04.2017 15:00:00 8,3 2,1 11,4 10,1 10,6 24 13 37 20 N 1018,8 20 41 0,0
26.04.2017 14:00:00 6,5 2,6 7,1 10,1 10,6 18 10 32 18 N 1018,7 37 11 0,2
26.04.2017 13:00:00 6,6 3,2 7,5 10,1 10,5 17 9 35 19 N 1018,5 47 5 0,2
26.04.2017 12:00:00 7,3 1,8 8,9 10,1 10,6 20 11 37 20 N 1018,3 55 25 0,0
26.04.2017 11:00:00 5,7 1,0 6,9 10,1 10,6 23 13 35 19 N 1018,2 43 7 0,0
26.04.2017 10:00:00 5,2 1,5 5,3 10,1 10,6 15 8 36 20 N 1017,8 24 14 0,0
26.04.2017 09:00:00 5,5 0,8 4,4 10,2 10,5 19 10 31 17 N 1017,6 49 18 0,0
26.04.2017 08:00:00 4,8 0,9 3,3 10,3 10,6 20 11 32 17 N 1017,0 44 13 0,0
26.04.2017 07:00:00 4,8 0,2 3,9 10,3 10,5 21 11 35 19 N 1016,6 60 0 0,0
26.04.2017 06:00:00 5,1 0,5 3,3 10,4 10,6 19 10 36 20 NNE 1016,1 60 0 0,0
26.04.2017 05:00:00 5,1 0,8 3,6 10,5 10,5 17 9 32 17 NNE 1016,0 60 0 0,0
26.04.2017 04:00:00 5,1 0,5 3,9 10,5 10,5 17 9 33 18 NNE 1015,8 60 0 0,0
26.04.2017 03:00:00 5,4 2,0 3,7 10,6 10,5 18 10 31 17 N 1015,7 49 0 0,0
26.04.2017 02:00:00 5,0 1,3 3,5 10,7 10,6 19 10 34 18 N 1016,0 60 0 0,0
26.04.2017 01:00:00 5,3 1,8 3,8 10,7 10,5 19 10 39 21 N 1015,7 45 0 0,0
26.04.2017 00:00:00 6,7 0,8 4,4 10,8 10,5 24 13 48 26 NNW 1015,5 60 0 0,0
25.04.2017 23:00:00 6,7 -1,7 0,6 10,9 10,5 15 8 29 16 NNW 1015,1 60 0 0,0
25.04.2017 22:00:00 4,5 -2,8 -1,4 10,9 10,5 5 3 11 6 NNW 1014,7 60 0 0,0
25.04.2017 21:00:00 5,6 -3,0 1,1 10,9 10,5 7 4 18 10 N 1014,4 60 37 0,0
25.04.2017 20:00:00 7,6 -3,0 10,9 10,9 10,5 13 7 32 17 N 1014,2 53 60 0,0
25.04.2017 19:00:00 8,2 -1,9 9,8 10,9 10,5 16 9 31 17 N 1014,3 56 49 0,0
25.04.2017 18:00:00 8,4 -2,3 14,8 10,8 10,5 21 12 39 21 NNW 1014,4 59 58 0,0
25.04.2017 17:00:00 8,3 -1,8 9,2 10,7 10,5 25 13 36 20 NNW 1014,8 45 29 0,0
25.04.2017 16:00:00 8,1 0,3 12,2 10,6 10,5 15 8 36 20 NNW 1014,9 53 45 0,0
25.04.2017 15:00:00 8,1 0,3 10,0 10,6 10,5 16 8 37 20 N 1015,0 44 40 0,0
25.04.2017 14:00:00 7,8 1,0 11,1 10,5 10,5 21 11 32 18 NNW 1015,1 60 22 0,0
25.04.2017 13:00:00 7,4 -0,8 9,6 10,5 10,5 16 8 31 17 NNW 1015,3 20 21 0,0
25.04.2017 12:00:00 7,2 -0,8 9,2 10,5 10,5 18 10 35 19 NNW 1015,3 55 23 0,0
25.04.2017 11:00:00 6,7 -1,0 7,4 10,6 10,5 18 10 35 19 NNW 1015,3 54 20 0,0
25.04.2017 10:00:00 6,7 -1,5 8,9 10,6 10,5 21 11 36 19 NNW 1015,3 52 60 0,0
25.04.2017 09:00:00 5,9 -1,7 4,6 10,7 10,5 14 8 28 15 NNW 1015,4 60 44 0,0
25.04.2017 08:00:00 4,7 -2,9 2,4 10,8 10,5 18 10 29 15 N 1015,2 41 23 0,0
25.04.2017 07:00:00 4,3 -3,5 2,6 10,9 10,5 18 10 33 18 N 1014,9 60 0 0,0
25.04.2017 06:00:00 4,7 -2,9 3,1 11,0 10,5 19 10 39 21 N 1014,8 60 0 0,0
25.04.2017 05:00:00 5,5 -2,6 4,0 11,1 10,5 23 12 37 20 N 1014,7 60 0 0,0
25.04.2017 04:00:00 6,5 -2,4 5,6 11,1 10,5 25 13 42 23 N 1014,7 60 0 0,0

tt = Température de l'air
td = dewpoint
tt 5cm = Température de l'air 5cm
tt -20cm = Température de l'air -20cm
tt -100cm = Température de l'air -100cm
ff = Vitesse du vent
fx = gusts
dd = Direction du vent
ppp = reduced air pressure
vv = visibility
sd = Ensoleillement
rr = Quantités de précipitations

stations d'obs. à proximité